Regional Weather Roundup
Issued by NWS

Home | Current Version | Previous Version | Graphics & Text | Print | Product List | Glossary On
Versions: 1 2 3 4 5 6 7 8 9 10 11 12 13 14 15 16 17 18 19 20 21 22 23 24 25 26 27 28 29 30 31 32 33 34 35 36 37 38 39 40 41 42 43 44 45 46 47 48 49 50
000
ASUS43 KOAX 162110
RWRNE

WEATHER ROUNDUP FOR NEBRASKA
NATIONAL WEATHER SERVICE OMAHA NE
400 PM CDT TUE SEP 16 2014

NOTES: SATELLITE DATA IS BEING USED TO AUGMENT CLOUD COVER ABOVE
       12000 FEET.
       "FAIR" INDICATES FEW OR NO CLOUDS BELOW 12,000 FEET WITH NO
       SIGNIFICANT WEATHER AND/OR OBSTRUCTIONS TO VISIBILITY.

  * THESE STATIONS DO NOT REPORT WEATHER SUCH AS RAIN...SNOW OR FOG.

NEZ001>004-019>022-054>056-162200-
NEBRASKA PANHANDLE

CITY           SKY/WX    TMP DP  RH WIND       PRES   REMARKS
SCOTTSBLUFF    SUNNY     87  47  24 W7        30.03F
ALLIANCE       PTSUNNY   84  43  23 N6        30.02F
CHADRON        MOSUNNY   85  44  23 NE3       29.97F
KIMBALL        SUNNY     84  32  15 N15       30.09F
SIDNEY         SUNNY     86  40  19 N12G23    30.07F
$$

NEZ057>060-069>072-079>082-162200-
SOUTHWEST NEBRASKA

CITY           SKY/WX    TMP DP  RH WIND       PRES   REMARKS
NORTH PLATTE   SUNNY     76  58  53 S16G23    29.98F
IMPERIAL       MOSUNNY   85  51  31 W9        29.98F
LEXINGTON      CLOUDY    70  59  67 S13G18    30.03F
MCCOOK         SUNNY     78  58  49 S15       29.99F
OGALLALA       MOSUNNY   83  55  38 N7        29.99F
$$

NEZ005>010-023>029-035>040-094-162200-
NORTH CENTRAL NEBRASKA

CITY           SKY/WX    TMP DP  RH WIND       PRES   REMARKS
VALENTINE      SUNNY     80  56  43 CALM      29.96F
AINSWORTH      SUNNY     76  57  51 S10G16    29.96F
BROKEN BOW     CLOUDY    68  56  65 S15G21    30.02F
O`NEILL        PTSUNNY   70  57  64 S15G21    30.00F
ORD            CLOUDY    68  55  63 S16G23    30.01F
THEDFORD       SUNNY     80  58  46 W6        29.98F
$$

NEZ041-046>049-061>064-073>077-083>087-162200-
SOUTH CENTRAL NEBRASKA

CITY           SKY/WX    TMP DP  RH WIND       PRES   REMARKS
GRAND ISLAND   CLOUDY    69  54  58 S13       30.04F
AURORA         CLOUDY    69  48  47 S10       30.05F
HASTINGS       CLOUDY    67  51  56 S13       30.05F
HEBRON         CLOUDY    69  47  45 S7        30.05F
HOLDREGE       CLOUDY    67  54  63 S12G17    30.04F
KEARNEY *      CLOUDY    66  55  68 S13       30.04F
YORK           CLOUDY    68  50  52 S9        30.06F
$$

NEZ011>018-030>034-042>045-162200-
NORTHEAST NEBRASKA

CITY           SKY/WX    TMP DP  RH WIND       PRES   REMARKS
NORFOLK        PTSUNNY   68  49  50 S14       30.04F
ALBION         CLOUDY    68  53  58 S12G17    30.03F
BLAIR          SUNNY     69  48  46 S6        30.08F
COLUMBUS *     SUNNY     70  48  46 S10       30.06F
FREMONT        SUNNY     70  47  43 S5        30.06F
TEKAMAH        SUNNY     69  47  45 S9        30.07F
WAYNE          CLOUDY    70  49  48 S14       30.05F
$$

NEZ050>053-065>068-078-088>093-162200-
SOUTHEAST NEBRASKA

CITY           SKY/WX    TMP DP  RH WIND       PRES   REMARKS
LINCOLN        SUNNY     71  46  40 S8        30.07F
OMAHA EPPLEY   MOSUNNY   68  49  50 S10       30.08F
BEATRICE       SUNNY     71  47  42 S10       30.06F
FALLS CITY     SUNNY     71  51  49 CALM      30.08F
NEBRASKA CITY  SUNNY     68  40  35 S8        30.08F
PLATTSMOUTH    SUNNY     68  46  45 SE6       30.08F
$$

NEZ044-045-051>053-067-162200-
OMAHA AREA

CITY           SKY/WX    TMP DP  RH WIND       PRES   REMARKS
OMAHA EPPLEY   MOSUNNY   68  49  50 S10       30.08F
BLAIR          SUNNY     69  48  46 S6        30.08F
FREMONT        SUNNY     70  47  43 S5        30.06F
MILLARD        SUNNY     69  48  48 SE7       30.07F
OFFUTT AFB     SUNNY     68  53  57 SE6       30.07F
PLATTSMOUTH    SUNNY     68  46  45 SE6       30.08F
WAHOO          FAIR      70  42  36 S8        30.07F
$$



USA.gov is the U.S. government's official web portal to all federal, state and local government web resources and services.